When you browse on this site, cookies collect data to enhance your experience and personalize the content and advertising you see.
Visit our Privacy Policy to learn more. By continuing to use the site, you agree to this use of cookies and data.
  • în România
  • Lista ţărilor
  • Pe 7 zile
  • Temperatura apei
  • Meteo pe hartă
  • Widget-uri
  • user-avatar
    Intrare

    Meteo pe oră la Polkowice

    Astăzi, 25 August, Duminică

    Timp Temperatura Precipitaţii Vânt Presiune Umiditate
    00:00 +20°C° 0 mm 3 m/s 752 mmHg 69%
    01:00 +20°C° 0 mm 3 m/s 752 mmHg 71%
    02:00 +19°C° 0 mm 3 m/s 751 mmHg 73%
    03:00 +19°C° 0 mm 3 m/s 751 mmHg 75%
    04:00 +18°C° 0 mm 3 m/s 751 mmHg 78%
    05:00 +19°C° 0 mm 4 m/s 751 mmHg 76%
    06:00 +20°C° 0 mm 4 m/s 751 mmHg 75%
    07:00 +20°C° 0 mm 4 m/s 751 mmHg 74%
    08:00 +22°C° 0 mm 5 m/s 751 mmHg 69%
    09:00 +23°C° 0 mm 5 m/s 751 mmHg 64%
    10:00 +26°C° 0 mm 5 m/s 751 mmHg 59%
    11:00 +27°C° 0 mm 5 m/s 751 mmHg 56%
    12:00 +28°C° 0 mm 5 m/s 751 mmHg 53%
    13:00 +29°C° 0 mm 5 m/s 751 mmHg 51%
    14:00 +29°C° 0 mm 4 m/s 751 mmHg 51%
    15:00 +29°C° 0 mm 4 m/s 750 mmHg 50%
    16:00 +29°C° 0 mm 4 m/s 750 mmHg 50%
    17:00 +28°C° 0 mm 4 m/s 750 mmHg 55%
    18:00 +26°C° 0 mm 3 m/s 750 mmHg 60%
    19:00 +25°C° 0 mm 3 m/s 750 mmHg 66%
    20:00 +24°C° 0 mm 3 m/s 750 mmHg 68%
    21:00 +22°C° 0 mm 3 m/s 750 mmHg 71%
    22:00 +22°C° 0 mm 3 m/s 750 mmHg 74%
    23:00 +21°C° 0 mm 3 m/s 750 mmHg 76%

    Mâine, 26 August, Luni

    Timp Temperatura Precipitaţii Vânt Presiune Umiditate
    00:00 +21°C° 0 mm 2 m/s 750 mmHg 79%
    01:00 +20°C° 0 mm 2 m/s 750 mmHg 81%
    02:00 +20°C° 0 mm 2 m/s 750 mmHg 83%
    03:00 +20°C° 0 mm 2 m/s 750 mmHg 85%
    04:00 +20°C° 0 mm 2 m/s 750 mmHg 86%
    05:00 +20°C° 0 mm 2 m/s 750 mmHg 85%
    06:00 +21°C° 0 mm 2 m/s 750 mmHg 83%
    07:00 +21°C° 0 mm 2 m/s 750 mmHg 82%
    08:00 +24°C° 0 mm 2 m/s 750 mmHg 74%
    09:00 +26°C° 0 mm 2 m/s 750 mmHg 67%
    10:00 +28°C° 0 mm 3 m/s 750 mmHg 60%
    11:00 +29°C° 0 mm 2 m/s 750 mmHg 54%
    12:00 +30°C° 0 mm 2 m/s 750 mmHg 49%
    13:00 +32°C° 0 mm 2 m/s 749 mmHg 44%
    14:00 +32°C° 0 mm 2 m/s 749 mmHg 43%
    15:00 +32°C° 0 mm 2 m/s 749 mmHg 43%
    16:00 +32°C° 0 mm 2 m/s 749 mmHg 42%
    17:00 +30°C° 0 mm 2 m/s 749 mmHg 48%
    18:00 +29°C° 0 mm 2 m/s 749 mmHg 53%
    19:00 +27°C° 0 mm 2 m/s 749 mmHg 59%
    20:00 +26°C° 0.2 mm 2 m/s 749 mmHg 64%
    21:00 +25°C° 0.2 mm 2 m/s 749 mmHg 69%
    22:00 +24°C° 0.2 mm 2 m/s 749 mmHg 74%
    23:00 +23°C° 0.2 mm 2 m/s 749 mmHg 75%

    Poimâine, 27 August, Marţi

    Timp Temperatura Precipitaţii Vânt Presiune Umiditate
    00:00 +23°C° 0.2 mm 1 m/s 749 mmHg 77%
    01:00 +23°C° 0.2 mm 1 m/s 749 mmHg 79%
    02:00 +22°C° 0 mm 1 m/s 749 mmHg 79%
    03:00 +22°C° 0 mm 1 m/s 749 mmHg 80%
    04:00 +22°C° 0 mm 1 m/s 748 mmHg 81%
    05:00 +23°C° 0 mm 1 m/s 748 mmHg 78%
    06:00 +23°C° 0 mm 1 m/s 749 mmHg 76%
    07:00 +24°C° 0 mm 1 m/s 749 mmHg 74%
    08:00 +26°C° 0 mm 2 m/s 749 mmHg 67%
    09:00 +28°C° 0 mm 2 m/s 749 mmHg 59%
    10:00 +30°C° 0 mm 3 m/s 749 mmHg 51%
    11:00 +31°C° 0 mm 3 m/s 749 mmHg 48%
    12:00 +33°C° 0 mm 3 m/s 749 mmHg 44%
    13:00 +34°C° 0 mm 3 m/s 749 mmHg 40%
    14:00 +34°C° 0 mm 3 m/s 749 mmHg 40%
    15:00 +34°C° 0 mm 3 m/s 748 mmHg 40%
    16:00 +34°C° 0 mm 3 m/s 748 mmHg 40%
    17:00 +31°C° 0.1 mm 2 m/s 748 mmHg 46%
    18:00 +29°C° 0.1 mm 2 m/s 748 mmHg 51%
    19:00 +27°C° 0.1 mm 1 m/s 748 mmHg 57%
    20:00 +27°C° 0.6 mm 1 m/s 748 mmHg 62%
    21:00 +26°C° 0.6 mm 1 m/s 748 mmHg 67%
    22:00 +25°C° 0.6 mm 1 m/s 748 mmHg 72%
    23:00 +24°C° 0.5 mm 1 m/s 748 mmHg 73%

    28 August, Miercuri

    Timp Temperatura Precipitaţii Vânt Presiune Umiditate
    00:00 +24°C° 0.5 mm 1 m/s 748 mmHg 74%
    01:00 +24°C° 0.5 mm 1 m/s 748 mmHg 75%
    02:00 +24°C° 0.4 mm 1 m/s 747 mmHg 76%
    03:00 +23°C° 0.4 mm 1 m/s 747 mmHg 77%
    04:00 +23°C° 0.4 mm 2 m/s 747 mmHg 78%
    05:00 +24°C° 0.1 mm 2 m/s 747 mmHg 77%
    06:00 +24°C° 0.1 mm 2 m/s 747 mmHg 75%
    07:00 +25°C° 0.1 mm 2 m/s 747 mmHg 73%
    08:00 +27°C° 0 mm 2 m/s 747 mmHg 66%
    09:00 +29°C° 0 mm 3 m/s 747 mmHg 58%
    10:00 +31°C° 0 mm 3 m/s 747 mmHg 50%
    11:00 +33°C° 0 mm 3 m/s 747 mmHg 47%
    12:00 +34°C° 0 mm 4 m/s 746 mmHg 43%
    13:00 +35°C° 0 mm 4 m/s 746 mmHg 39%
    14:00 +34°C° 0 mm 4 m/s 746 mmHg 40%
    15:00 +34°C° 0 mm 4 m/s 746 mmHg 41%
    16:00 +34°C° 0 mm 5 m/s 745 mmHg 41%
    17:00 +32°C° 0.1 mm 4 m/s 745 mmHg 47%
    18:00 +30°C° 0.1 mm 3 m/s 745 mmHg 53%
    19:00 +28°C° 0.1 mm 2 m/s 745 mmHg 59%
    20:00 +27°C° 0.1 mm 2 m/s 745 mmHg 61%
    21:00 +26°C° 0.1 mm 2 m/s 745 mmHg 63%
    22:00 +26°C° 0.1 mm 2 m/s 745 mmHg 65%
    23:00 +25°C° 0.1 mm 2 m/s 745 mmHg 67%

    29 August, Joi

    Timp Temperatura Precipitaţii Vânt Presiune Umiditate
    00:00 +24°C° 0.1 mm 2 m/s 745 mmHg 69%
    01:00 +24°C° 0.1 mm 2 m/s 745 mmHg 71%
    02:00 +23°C° 0 mm 2 m/s 745 mmHg 71%
    03:00 +23°C° 0 mm 2 m/s 745 mmHg 70%
    04:00 +23°C° 0 mm 2 m/s 745 mmHg 70%
    05:00 +24°C° 0 mm 2 m/s 745 mmHg 69%
    06:00 +24°C° 0 mm 2 m/s 745 mmHg 67%
    07:00 +25°C° 0 mm 2 m/s 745 mmHg 65%
    08:00 +27°C° 0 mm 2 m/s 745 mmHg 58%
    09:00 +29°C° 0 mm 2 m/s 745 mmHg 51%
    10:00 +31°C° 0 mm 2 m/s 745 mmHg 44%
    11:00 +33°C° 0 mm 3 m/s 745 mmHg 42%
    12:00 +34°C° 0 mm 3 m/s 745 mmHg 40%
    13:00 +34°C° 0 mm 3 m/s 745 mmHg 38%
    14:00 +34°C° 0 mm 3 m/s 745 mmHg 38%
    15:00 +34°C° 0 mm 3 m/s 745 mmHg 39%
    16:00 +34°C° 0 mm 3 m/s 745 mmHg 40%
    17:00 +31°C° 0 mm 2 m/s 745 mmHg 46%
    18:00 +29°C° 0 mm 2 m/s 745 mmHg 52%
    19:00 +28°C° 0 mm 2 m/s 745 mmHg 59%
    20:00 +26°C° 0.3 mm 2 m/s 745 mmHg 64%
    21:00 +25°C° 0.3 mm 1 m/s 746 mmHg 69%
    22:00 +24°C° 0.3 mm 1 m/s 746 mmHg 74%
    23:00 +24°C° 0.5 mm 2 m/s 746 mmHg 77%

    30 August, Vineri

    Timp Temperatura Precipitaţii Vânt Presiune Umiditate
    00:00 +23°C° 0.5 mm 2 m/s 746 mmHg 80%
    01:00 +23°C° 0.5 mm 2 m/s 747 mmHg 83%
    02:00 +23°C° 0.3 mm 2 m/s 747 mmHg 83%
    03:00 +23°C° 0.3 mm 2 m/s 747 mmHg 83%
    04:00 +21°C° 0.3 mm 2 m/s 747 mmHg 83%
    05:00 +23°C° 0 mm 2 m/s 747 mmHg 83%
    06:00 +22°C° 0 mm 3 m/s 747 mmHg 83%
    07:00 +22°C° 0 mm 3 m/s 747 mmHg 84%
    08:00 +22°C° 0 mm 3 m/s 748 mmHg 83%
    09:00 +24°C° 0 mm 3 m/s 748 mmHg 82%
    10:00 +24°C° 0 mm 3 m/s 748 mmHg 80%
    11:00 +25°C° 0.2 mm 3 m/s 748 mmHg 78%
    12:00 +25°C° 0.2 mm 3 m/s 748 mmHg 75%
    13:00 +26°C° 0.2 mm 2 m/s 748 mmHg 73%
    14:00 +25°C° 1.2 mm 2 m/s 748 mmHg 74%
    15:00 +25°C° 1.2 mm 2 m/s 748 mmHg 76%
    16:00 +25°C° 1.2 mm 2 m/s 748 mmHg 77%
    17:00 +24°C° 0.7 mm 2 m/s 748 mmHg 79%
    18:00 +24°C° 0.7 mm 2 m/s 748 mmHg 81%
    19:00 +23°C° 0.7 mm 2 m/s 748 mmHg 82%
    20:00 +23°C° 0.5 mm 2 m/s 748 mmHg 85%
    21:00 +21°C° 0.5 mm 3 m/s 749 mmHg 88%
    22:00 +20°C° 0.5 mm 3 m/s 749 mmHg 91%
    23:00 +20°C° 0.6 mm 3 m/s 749 mmHg 92%
    Arată mai mult